カタログに戻る

STARLINK-34324

運用中通信VLEO
NORAD 64207·PAYLOAD·🇺🇸 United States

打ち上げ May 31, 2025 から Vandenberg Space Force Base

Loading…

次のパス (今後24時間)

TLE

最新Source: CelesTrak SupGP

元期: Sep 15, 2026, 03:34 UTC

1 64207C 25117E   26258.14909722 -.00056188  00000+0 -16601-2 0  2585
2 64207  53.1579 238.5707 0001482  92.1334  32.1798 15.34417426    18

AllMySatでSTARLINK-34324をリアルタイム追跡

Download on the App Store